Estación de Copayapu

Ultimos registro cada 15 minutos 31
Estación Fecha / Hora Temperatura Humedad Lluvia Velocidad Dirección Radiación Presion
31 Copayapu 04-05-2026 07:30 10,3 77 0 0,4 360 0 1015,1
30 Copayapu 04-05-2026 07:15 10,5 77 0 0 15 0 1015,1
29 Copayapu 04-05-2026 07:00 10,5 77 0 0 15 0 1015
28 Copayapu 04-05-2026 06:45 10,6 77 0 0 15 0 1015,2
27 Copayapu 04-05-2026 06:30 10,5 77 0 0 15 0 1015,2
26 Copayapu 04-05-2026 06:15 10,3 77 0 0 15 0 1015,3
25 Copayapu 04-05-2026 06:00 9,9 77 0 0 15 0 1015,1
24 Copayapu 04-05-2026 05:45 9,2 76 0 0 15 0 1015
23 Copayapu 04-05-2026 05:30 8,7 73 0 0 15 0 1014,9
22 Copayapu 04-05-2026 05:15 7,9 71 0 0 15 0 1014,7
21 Copayapu 04-05-2026 05:00 7,8 71 0 0 15 0 1014,7
20 Copayapu 04-05-2026 04:45 8,1 71 0 0 15 0 1014,6
19 Copayapu 04-05-2026 04:30 8,4 70 0 0 15 0 1014,5
18 Copayapu 04-05-2026 04:15 8,7 71 0 0 15 0 1014,5
17 Copayapu 04-05-2026 04:00 9 72 0 0 15 0 1014,4
16 Copayapu 04-05-2026 03:45 7,9 68 0 0 15 0 1014,5
15 Copayapu 04-05-2026 03:30 8,5 69 0 0 15 0 1014,6
14 Copayapu 04-05-2026 03:15 8,6 69 0 0 15 0 1014,5
13 Copayapu 04-05-2026 03:00 8,7 70 0 0 15 0 1014,7
12 Copayapu 04-05-2026 02:45 8,2 67 0 0 15 0 1014,7
11 Copayapu 04-05-2026 02:30 8,2 66 0 0 15 0 1014,6
10 Copayapu 04-05-2026 02:15 8,3 66 0 0 15 0 1014,5
9 Copayapu 04-05-2026 02:00 8,6 66 0 0 15 0 1014,7
8 Copayapu 04-05-2026 01:45 8,7 66 0 0 15 0 1014,9
7 Copayapu 04-05-2026 01:30 9 66 0 0 15 0 1014,8
6 Copayapu 04-05-2026 01:15 9,3 65 0 0 15 0 1014,9
5 Copayapu 04-05-2026 01:00 9,8 65 0 0 15 0 1014,9
4 Copayapu 04-05-2026 00:45 10,3 65 0 0 15 0 1014,8
3 Copayapu 04-05-2026 00:30 11 65 0 0 15 0 1014,8
2 Copayapu 04-05-2026 00:15 11,8 66 0 0 15 0 1014,7
1 Copayapu 04-05-2026 00:00 12,1 66 0 0 15 0 1014,9